PSLV R/B, 47257

Orbit data source: Space-Track

PSLV R/B, 47257 is space debris in HEO originally from a launch on Thu, 17 Dec 2020 UTC launched from the Sirharikota (SRI). Debris objects in space refer to the collection of defunct objects orbiting the Earth. Examples of debris include non-operational satellites, rocket bodies, and fragments generated from explosions, collisions, or faulty payload assembly.

Loading next visibility...
Identifier
47257, 2020-099B
Orbit
HEO
Country
Flag of ININ / IND
Related business
Manufacturer
VSSC/LPSC
Mission
Spacecraft
Bus & Motor
PS-4, Unknown motor
Mass
920 kg wet, 920 kg dry
Launch date (UTC)
2020-12-17 (6 years ago)
Launch vehicle
Unknown
Launch site
Sirharikota (SRI)
Object type
Payload
Rocket body
Debris
Shape & HBR
Cyl + Cyl + 2 Nozzle, 1.5 m
Radar Cross Section
3.727 m², Large (>1 m²)

Expand to show TLE details & history
Last TLE update: 3 days ago

TLE from 3 days ago
0 PSLV R/B
1 47257U 20099B   26170.82866129  .00113128 -24365-6  10303-2 0  9995
2 47257  17.8116 191.8976 5465315 269.5648  30.8903  5.00184981 86790
Epoch: 2026-06-19T19:53Z
TLE epoch observation values (Epoch: 2026-06-19T19:53:16.335Z)
Latitude
-0.00007°
Longitude
-14.45775°
Altitude
3,793.039 km
Speed
7.126 km/s
True Right ascension
12h 47m 38s
True Declination
0° 00' 00"
Sunlit
Object was in daylight at epoch
Visualization orbit readout
Latitude
Unknown
Longitude
Unknown
Altitude
Unknown
Speed
Unknown
Apparent Right ascension
Unknown
Apparent Declination
Unknown
Sunlit
N/A
Visualization observer readout
Local Sidereal Time
21:31:25
Azimuth
Unknown
Elevation
Unknown
Doppler factor
Unknown
Orbital elements
Apogee altitude
15,964.856 km
Perigee altitude
173.196 km
Semi-major axis
14,447.163 km
Eccentricity
0.54653
Inclination
17.8116°
RAAN
191.8976°
Arg. of periapsis
269.5648°
True anomaly
90.41245°
Mean anomaly
30.8903°
Eccentric anomaly
57.2167°
Mean motion
1.24988 °/min
Orbital period
288.03 mins
BSTAR
0.0010303
Loading maneuver chart data...
Computing Atmospheric mass density...
Loading historical data...
Loading historical data...
Loading historical data...
Loading historical data...
Loading historical data...
Loading historical data...
Loading historical data...
Other satellites on launch #99 in the year 2020 (2020-12-17 UTC)

Documentation

Showing up to 5 results
|